Home   Weather   Grand Rapids   Past weeks

Flag for USA Past Weather in Grand Rapids, Michigan, USA — Yesterday and Last 2 Weeks

Now
75 °F

Cloudy.


Feels Like: 74 °F
Forecast: 69 / 79 °F
Wind: 5 mph from Northeast

Location: Kent County International Airport

Current Time: Aug 17, 2018 at 6:37:01 pm

Latest Report: Aug 17, 2018 at 5:53 pm


Visibility: 10 mi

Pressure: 29.94 "Hg

Humidity: 90%

Dew Point: 72 °F

Location of Grand RapidsLocation

Past Weather in Grand Rapids — Graph

°F

Grand Rapids Temperature Yesterday

Maximum temperature yesterday: 83 °F (at 3:53 pm)
Minimum temperature yesterday: 67 °F (at 5:53 am)
Average temperature yesterday: 75 °F

High & Low Weather Summary for the Past Weeks

 TemperatureHumidityPressure
High91 °F (Aug 5, 5:53 pm)100% (Aug 6, 9:53 am)30.14 "Hg (Aug 6, 9:53 am)
Low60 °F (Aug 11, 6:53 am)37% (Aug 10, 5:53 pm)29.86 "Hg (Aug 8, 5:53 pm)
Average75 °F77%29.98 "Hg
* Reported Aug 2 5:05 pm — Aug 17 5:13 pm, Grand Rapids. Weather by CustomWeather, © 2018

Note: Actual official high and low records may vary slightly from our data, if they occured in-between our weather recording intervals... More about our weather records

Advertising

Grand Rapids Weather History for the Previous 24 Hours

Scroll right to see more
 ConditionsComfort  
Time TempWeatherWind HumidityBarometerVisibility
5:13 pm
Fri, Aug 17
74 °FCloudy.5 mph94%29.96 "Hg10 mi
4:53 pm74 °FCloudy.5 mph94%29.94 "Hg10 mi
4:14 pm74 °FLight rain. Fog.8 mph94%29.95 "Hg4 mi
3:53 pm73 °FThunderstorms. Fog.7 mph97%29.94 "Hg5 mi
3:34 pm75 °FThunderstorms. Mostly cloudy.10 mph90%29.96 "Hg8 mi
2:53 pm76 °FLight rain. Cloudy.9 mph85%29.94 "Hg10 mi
1:53 pm77 °FLight rain. Mostly cloudy.5 mph85%29.95 "Hg10 mi
1:36 pm77 °FLight rain. Mostly cloudy.3 mph82%29.95 "Hg10 mi
12:53 pm76 °FMostly cloudy.7 mph88%29.93 "Hg8 mi
11:53 am75 °FLight rain. Fog.5 mph94%29.93 "Hg5 mi
10:53 am73 °FLight rain. Fog.No wind97%29.93 "Hg4 mi
9:53 am72 °FFog.No wind97%29.95 "Hg4 mi
9:38 am72 °FFog.3 mph97%29.96 "Hg3 mi
8:53 am70 °FFog.3 mph100%29.95 "Hg1 mi
8:13 am70 °FFog.3 mph97%29.95 "Hg1 mi
7:53 am70 °FFog.No wind100%29.93 "Hg1 mi
7:25 am69 °FFog.No wind100%29.94 "Hg1 mi
6:53 am69 °FFog.No wind100%29.92 "Hg0 mi
6:09 am70 °FFog.3 mph100%29.93 "Hg0 mi
5:53 am70 °FFog.5 mph100%29.92 "Hg0 mi
5:35 am69 °FFog.3 mph100%29.93 "Hg0 mi
5:18 am69 °FFog.5 mph100%29.94 "Hg1 mi
4:53 am70 °FFog.No wind100%29.92 "Hg5 mi
4:36 am69 °FFog.No wind100%29.93 "Hg1 mi
4:09 am69 °FFog.3 mph100%29.93 "Hg3 mi
4:06 am69 °FFog.No wind100%29.93 "Hg2 mi
3:33 am69 °FFog.No wind100%29.92 "Hg2 mi
3:21 am69 °FFog.3 mph100%29.92 "Hg1 mi
2:53 am70 °FClear.No wind97%29.90 "Hg7 mi
1:53 am71 °FFog.No wind96%29.92 "Hg6 mi
12:53 am73 °FClear.No wind94%29.93 "Hg7 mi
11:53 pm
Thu, Aug 16
73 °FPassing clouds.3 mph94%29.93 "Hg9 mi
10:53 pm75 °FPartly cloudy.6 mph90%29.93 "Hg10 mi
9:53 pm76 °FPartly cloudy.6 mph88%29.93 "Hg10 mi
8:53 pm76 °FPassing clouds.No wind91%29.92 "Hg10 mi
7:53 pm77 °FPartly sunny.3 mph85%29.90 "Hg10 mi
7:25 pm76 °FLight rain. Fog.10 mph88%29.92 "Hg5 mi
7:13 pm76 °FHeavy rain. Partly sunny.7 mph85%29.93 "Hg3 mi
7:02 pm79 °FLight rain. Overcast.3 mph77%29.92 "Hg3 mi
Weather by CustomWeather, © 2018

See weather overview